Regional Weather Roundup
Issued by NWS

Home | Current Version | Previous Version | Graphics & Text | Print | Product List | Glossary On
Versions: 1 2 3 4 5 6 7 8 9 10 11 12 13 14 15 16 17 18 19 20 21 22 23 24 25 26 27 28 29 30 31 32 33 34 35 36 37 38 39 40 41 42 43 44 45 46 47 48 49 50
000
ASUS43 KLSX 200957
RWRMO

WEATHER SUMMARY FOR MISSOURI
NATIONAL WEATHER SERVICE SPRINGFIELD MO
500 AM CDT FRI OCT 20 2017

NOTE: "FAIR" INDICATES FEW OR NO CLOUDS BELOW 12,000 FEET WITH NO
       SIGNIFICANT WEATHER AND/OR OBSTRUCTIONS TO VISIBILITY.
       CURRENT SKY AND/OR WEATHER CONDITIONS ARE NOT AVAILABLE FOR
       CHILLICOTHE AND FARMINGTON.

MOZ001>031-035>038-043-044-053-054-201100-
...NORTHERN AND WESTERN MISSOURI...

CITY           SKY/WX    TMP DP  RH WIND       PRES   REMARKS
KANSAS CTY INT FAIR      55  51  86 S12       30.07S
LEE`S SUMMIT   FAIR      57  52  83 S14       30.09S
ST JOSEPH      FAIR      53  51  93 SE5       30.05F
CHILLICOTHE      N/A     50  49  96 S3        30.11R

$$
MOZ066>068-077>081-088>096-101>105-201100-
...SOUTHWEST MISSOURI...

CITY           SKY/WX    TMP DP  RH WIND       PRES   REMARKS
SPRINGFIELD    FAIR      54  50  86 S8        30.16S
JOPLIN         FAIR      57  52  83 MISG      30.13F

$$
MOZ032>034-039>042-045>050-055>058-069>072-201100-
...CENTRAL MISSOURI...

CITY           SKY/WX    TMP DP  RH WIND       PRES   REMARKS
COLUMBIA       NOT AVBL
JEFFERSON CITY FAIR      50  47  89 CALM      30.16R
ROLLA          FAIR      58  50  75 S15       30.17R
SEDALIA        FAIR      59  52  77 S12       30.14R
WARRENSBURG    FAIR      52  48  87 SE5       30.11S

$$
MOZ051-052-059>065-201100-
...EAST CENTRAL MISSOURI...

CITY           SKY/WX    TMP DP  RH WIND       PRES   REMARKS
ST LOUIS INTL  FAIR      54  50  86 SE5       30.18R

$$
MOZ072>076-082>087-097>100-106>115-201100-
...SOUTH CENTRAL AND SOUTHEAST MISSOURI...

CITY           SKY/WX    TMP DP  RH WIND       PRES   REMARKS
CAPE GIRARDEAU FAIR      46  45  96 CALM      30.22R
POPLAR BLUFF   FAIR      45  45 100 CALM      30.21R FOG
WEST PLAINS    FAIR      51  48  89 CALM      30.21R

$$



USA.gov is the U.S. government's official web portal to all federal, state and local government web resources and services.